Waarnemingen

Advertentie
Mijn weer
Geneve-Cointrin, Zwitserland (6700): temperatuur & dauwpunt: 11.07.2019 02:00:00 - 17.07.2019 02:00:00 (CEST)Geneve-Cointrin, Zwitserland (6700): temperatuur 5cm: 11.07.2019 02:00:00 - 17.07.2019 02:00:00 (CEST)Geneve-Cointrin, Zwitserland (6700): windsnelheid & windstoten: 11.07.2019 02:00:00 - 17.07.2019 02:00:00 (CEST)Geneve-Cointrin, Zwitserland (6700): windrichting: 11.07.2019 02:00:00 - 17.07.2019 02:00:00 (CEST)Geneve-Cointrin, Zwitserland (6700): luchtdruk: 11.07.2019 02:00:00 - 17.07.2019 02:00:00 (CEST)Geneve-Cointrin, Zwitserland (6700): zicht: 11.07.2019 02:00:00 - 17.07.2019 02:00:00 (CEST)Geneve-Cointrin, Zwitserland (6700): Zonneschijnduur: 11.07.2019 02:00:00 - 17.07.2019 02:00:00 (CEST)Geneve-Cointrin, Zwitserland (6700): neerslag: 11.07.2019 02:00:00 - 17.07.2019 02:00:00 (CEST)
Datum & Tijd tt [°C] td [°C] tt 5cm [°C] ff [km/u] ff [kn] fx [km/u] fx [kn] dd ppp [hPa] vv [km] sd [min] rr [mm]
17.07.2019 02:00:00 17,2 11,0 13,2 1 1 7 4 NW 1015,4 - 0 0,0
17.07.2019 01:00:00 18,0 11,0 14,6 3 2 7 4 NW 1015,3 - 0 0,0
17.07.2019 00:00:00 19,5 10,5 15,7 1 1 11 6 NO 1014,8 - 0 0,0
16.07.2019 23:00:00 22,3 8,5 18,4 6 3 16 9 NO 1014,4 30 0 0,0
16.07.2019 22:00:00 24,1 8,4 21,0 5 3 18 10 NNW 1013,7 - 0 0,0
16.07.2019 21:00:00 25,0 8,3 23,3 6 4 17 9 NNW 1013,4 - 19 0,0
16.07.2019 20:00:00 26,5 11,0 26,1 5 3 9 5 NO 1013,0 30 53 0,0
16.07.2019 19:00:00 27,2 8,8 29,9 4 2 14 8 NO 1012,8 - 60 0,0
16.07.2019 18:00:00 27,5 7,0 31,6 8 4 21 11 NNO 1012,9 - 60 0,0
16.07.2019 17:00:00 28,0 8,0 32,4 11 6 23 12 NO 1013,2 35 60 0,0
16.07.2019 16:00:00 27,6 5,0 32,5 11 6 25 14 NNO 1013,6 - 60 0,0
16.07.2019 15:00:00 27,1 8,6 32,4 12 7 26 14 NNO 1013,9 - 60 0,0
16.07.2019 14:00:00 25,2 12,1 32,3 14 7 25 13 NNO 1014,6 35 60 0,0
16.07.2019 13:00:00 24,0 12,5 30,0 14 8 27 15 NO 1015,3 - 60 0,0
16.07.2019 12:00:00 23,0 12,9 28,5 15 8 29 15 ONO 1015,8 - 60 0,0
16.07.2019 11:00:00 22,0 13,2 26,6 18 10 26 14 NO 1016,1 25 60 0,0
16.07.2019 10:00:00 19,6 12,9 24,9 10 6 19 10 NO 1016,8 - 60 0,0
16.07.2019 09:00:00 18,4 13,2 22,9 8 5 20 11 ONO 1017,1 - 60 0,0
16.07.2019 08:00:00 17,1 13,4 18,7 1 1 7 4 NO 1017,0 25 60 0,0
16.07.2019 07:00:00 13,5 11,7 13,1 2 1 4 2 NNO 1017,5 - 22 0,0
16.07.2019 06:00:00 13,6 11,5 9,9 1 1 5 3 NNO 1017,2 - 0 0,0
16.07.2019 05:00:00 14,4 11,8 11,2 2 1 5 3 W 1016,9 - 0 0,0
16.07.2019 04:00:00 14,1 12,0 11,6 3 1 9 5 NW 1017,0 - 0 0,0
16.07.2019 03:00:00 15,0 12,5 12,0 3 1 7 4 NNW 1016,9 - 0 0,0
16.07.2019 02:00:00 16,3 12,8 12,9 2 1 11 6 NO 1016,4 - 0 0,0
16.07.2019 01:00:00 17,2 13,0 14,3 7 4 18 10 N 1016,2 - 0 0,0
16.07.2019 00:00:00 16,7 12,2 14,2 9 5 16 8 N 1016,0 - 0 0,0
15.07.2019 23:00:00 19,3 12,3 16,9 10 6 26 14 NNO 1015,1 40 0 0,0
15.07.2019 22:00:00 20,0 12,0 18,1 17 9 31 17 NNO 1014,5 - 0 0,0
15.07.2019 21:00:00 20,9 11,5 19,2 18 10 33 18 NNO 1014,1 - 31 0,0
15.07.2019 20:00:00 21,8 12,1 22,3 22 12 40 22 NO 1013,5 40 60 0,0
15.07.2019 19:00:00 22,5 11,9 24,3 23 12 53 29 NO 1013,1 - 59 0,0
15.07.2019 18:00:00 22,6 11,7 25,1 31 17 54 29 NO 1012,8 - 60 0,0
15.07.2019 17:00:00 22,8 11,5 26,6 32 17 53 29 NO 1012,8 40 60 0,0
15.07.2019 16:00:00 22,7 11,2 26,7 34 18 55 30 NO 1012,9 - 60 0,0
15.07.2019 15:00:00 22,4 11,7 26,7 37 20 60 32 NO 1012,6 - 59 0,0
15.07.2019 14:00:00 22,2 12,3 26,2 36 19 60 33 NO 1012,6 40 51 0,0
15.07.2019 13:00:00 20,5 11,9 24,6 35 19 56 30 NO 1012,9 - 40 0,0
15.07.2019 12:00:00 18,9 12,1 22,0 32 17 54 29 NO 1013,2 - 31 0,0
15.07.2019 11:00:00 17,7 12,6 18,9 35 19 55 30 NO 1013,2 35 0 0,0
15.07.2019 10:00:00 18,1 12,4 20,7 36 19 58 31 NO 1013,0 - 18 0,0
15.07.2019 09:00:00 16,3 12,2 16,3 22 12 38 20 NNO 1013,3 - 0 0,0
15.07.2019 08:00:00 15,2 13,2 14,8 27 14 48 26 NO 1013,2 35 0 0,0
15.07.2019 07:00:00 16,1 11,6 15,2 25 13 41 22 NNO 1012,5 - 0 0,0
15.07.2019 06:00:00 16,4 12,1 15,5 30 16 50 27 NO 1012,5 - 0 0,0
15.07.2019 05:00:00 15,9 11,5 14,3 16 8 42 23 NO 1012,2 - 0 0,0
15.07.2019 04:00:00 16,1 11,9 14,5 18 10 33 18 NO 1012,9 - 0 0,0
15.07.2019 03:00:00 16,1 11,3 14,6 16 9 36 20 NO 1013,2 - 0 0,0
15.07.2019 02:00:00 16,6 10,6 15,3 22 12 36 20 NNO 1013,1 - 0 0,0
15.07.2019 01:00:00 17,2 10,8 15,8 13 7 42 23 NNO 1013,1 - 0 0,0
15.07.2019 00:00:00 17,6 12,2 16,6 26 14 40 22 NO 1013,2 - 0 0,0
14.07.2019 23:00:00 18,0 12,4 16,9 23 13 48 26 NNO 1013,2 40 0 0,0
14.07.2019 22:00:00 19,1 11,9 18,4 29 16 44 24 NO 1012,4 - 0 0,0
14.07.2019 21:00:00 21,4 11,0 20,5 19 11 29 16 NO 1011,4 - 0 0,0
14.07.2019 20:00:00 22,8 11,2 22,2 10 5 31 17 NNO 1010,6 40 0 0,0
14.07.2019 19:00:00 23,9 10,0 23,5 13 7 26 14 NO 1010,0 - 30 0,0
14.07.2019 18:00:00 25,0 9,1 28,7 14 8 22 12 ONO 1009,9 - 57 0,0
14.07.2019 17:00:00 26,1 8,7 31,9 13 7 28 15 NNO 1010,0 45 57 0,0
14.07.2019 16:00:00 25,9 8,9 31,2 14 8 27 15 NO 1010,5 - 59 0,0
14.07.2019 15:00:00 25,8 10,0 31,1 13 7 28 15 NNO 1010,8 - 60 0,0
14.07.2019 14:00:00 23,7 9,9 30,2 15 8 31 17 ONO 1011,7 45 60 0,0
14.07.2019 13:00:00 23,4 11,1 29,0 18 10 29 16 ONO 1012,3 - 60 0,0
14.07.2019 12:00:00 22,3 10,8 27,6 18 10 35 19 ONO 1013,1 - 60 0,0
14.07.2019 11:00:00 21,4 11,3 26,2 19 10 30 16 NO 1013,7 40 60 0,0
14.07.2019 10:00:00 19,9 11,1 23,9 19 10 30 16 NO 1014,1 - 60 0,0
14.07.2019 09:00:00 18,8 11,9 22,1 10 6 27 14 ONO 1014,3 - 60 0,0
14.07.2019 08:00:00 17,6 11,8 19,1 2 1 4 2 WNW 1014,5 45 60 0,0
14.07.2019 07:00:00 14,2 10,2 13,2 1 1 8 5 W 1015,1 - 25 0,0
14.07.2019 06:00:00 13,0 9,4 10,3 5 3 7 4 WNW 1015,6 - 0 0,0
14.07.2019 05:00:00 13,9 8,8 10,5 1 0 7 4 WZW 1015,3 - 0 0,0
14.07.2019 04:00:00 14,2 8,8 10,7 8 4 11 6 NW 1015,8 - 0 0,0
14.07.2019 03:00:00 15,4 9,2 11,9 3 1 7 4 W 1016,0 - 0 0,0
14.07.2019 02:00:00 16,4 9,3 12,9 4 2 17 9 NW 1016,0 - 0 0,0
14.07.2019 01:00:00 18,4 9,7 15,6 10 6 19 11 N 1015,8 - 0 0,0
14.07.2019 00:00:00 19,6 10,9 17,0 11 6 18 10 NNO 1015,9 - 0 0,0
13.07.2019 23:00:00 20,1 10,1 17,0 11 6 22 12 NNO 1015,9 60 0 0,0
13.07.2019 22:00:00 20,4 9,8 16,7 8 4 16 9 NNO 1015,9 - 0 0,0
13.07.2019 21:00:00 22,3 9,2 20,5 10 5 22 12 NNO 1015,3 - 29 0,0
13.07.2019 20:00:00 24,3 8,6 24,6 11 6 26 14 NNO 1014,5 60 44 0,0
13.07.2019 19:00:00 24,4 9,7 25,8 13 7 29 16 NNO 1014,4 - 51 0,0
13.07.2019 18:00:00 25,2 8,5 28,4 19 10 35 19 NO 1014,4 - 60 0,0
13.07.2019 17:00:00 26,5 9,2 30,3 18 10 31 17 ONO 1014,3 60 60 0,0
13.07.2019 16:00:00 25,9 8,9 30,3 16 9 31 17 ONO 1014,6 - 60 0,0
13.07.2019 15:00:00 24,9 8,1 30,4 16 9 28 15 ONO 1015,1 - 60 0,0
13.07.2019 14:00:00 24,2 8,1 30,2 18 10 30 16 O 1015,6 60 60 0,0
13.07.2019 13:00:00 23,9 9,7 30,0 16 9 31 17 NO 1015,7 - 60 0,0
13.07.2019 12:00:00 23,2 11,2 28,4 19 10 34 18 NO 1016,0 - 60 0,0
13.07.2019 11:00:00 22,8 10,6 28,1 18 10 27 15 ONO 1015,9 60 60 0,0
13.07.2019 10:00:00 22,1 11,3 26,9 9 5 18 10 ONO 1016,1 - 60 0,0
13.07.2019 09:00:00 20,9 13,2 24,7 8 4 15 8 O 1016,2 - 60 0,0
13.07.2019 08:00:00 19,6 13,5 21,3 4 2 11 6 N 1016,4 60 60 0,0
13.07.2019 07:00:00 16,7 12,9 15,5 4 2 9 5 NNO 1016,4 - 25 0,0
13.07.2019 06:00:00 17,3 12,5 13,5 5 3 11 6 WZW 1016,0 - 0 0,0
13.07.2019 05:00:00 18,9 11,9 15,4 5 3 14 8 N 1015,3 - 0 0,0
13.07.2019 04:00:00 20,4 12,3 17,1 4 2 13 7 WNW 1015,0 - 0 0,0
13.07.2019 03:00:00 19,7 12,6 16,5 7 4 15 8 N 1015,1 - 0 0,0
13.07.2019 02:00:00 19,2 12,7 15,3 3 2 9 5 N 1015,5 - 0 0,0
13.07.2019 01:00:00 20,2 12,8 17,1 3 1 18 10 NNO 1015,6 - 0 0,0
13.07.2019 00:00:00 21,4 12,6 18,0 5 3 21 11 ZZW 1015,2 - 0 0,0
12.07.2019 23:00:00 23,6 12,1 21,4 7 4 30 16 W 1014,8 50 0 0,0
12.07.2019 22:00:00 24,0 12,5 22,5 6 3 27 15 W 1014,4 - 0 0,0
12.07.2019 21:00:00 23,3 12,3 21,1 3 2 18 10 ZW 1014,2 - 2 0,0
12.07.2019 20:00:00 25,4 12,0 26,7 12 7 27 15 WNW 1013,3 50 24 0,0
12.07.2019 19:00:00 26,6 10,9 26,4 10 5 25 14 WNW 1012,6 - 4 0,0
12.07.2019 18:00:00 26,2 11,8 26,2 10 5 21 11 W 1012,3 - 2 0,0
12.07.2019 17:00:00 26,6 11,6 27,4 11 6 31 17 W 1012,6 50 7 0,0
12.07.2019 16:00:00 27,4 10,7 28,9 14 7 31 17 ZW 1012,2 - 21 0,0
12.07.2019 15:00:00 27,9 10,6 33,1 16 8 32 17 WZW 1012,3 - 22 0,0
12.07.2019 14:00:00 27,0 11,0 29,1 12 6 28 15 WZW 1012,8 40 1 0,0
12.07.2019 13:00:00 25,8 11,0 27,9 15 8 33 18 ZW 1013,3 - 31 0,0
12.07.2019 12:00:00 26,6 10,7 31,8 18 10 25 13 ZZW 1013,3 - 38 0,0
12.07.2019 11:00:00 24,3 12,2 30,7 11 6 22 12 ZZW 1014,0 50 59 0,0
12.07.2019 10:00:00 21,5 12,3 23,8 5 3 11 6 W 1015,0 - 26 0,0
12.07.2019 09:00:00 19,5 11,8 23,2 5 3 12 7 ZW 1015,4 - 45 0,0
12.07.2019 08:00:00 18,1 13,4 20,0 6 3 9 5 ZW 1015,5 40 20 0,0
12.07.2019 07:00:00 15,8 12,8 15,3 2 1 10 6 NW 1016,0 - 2 0,0
12.07.2019 06:00:00 15,0 11,7 13,9 5 3 6 4 W 1015,8 - 0 0,0
12.07.2019 05:00:00 14,4 11,4 12,7 3 2 6 4 WZW 1015,7 - 0 0,0
12.07.2019 04:00:00 14,4 11,8 12,3 6 3 9 5 W 1015,6 - 0 0,0
12.07.2019 03:00:00 15,4 12,7 11,8 1 1 5 3 NW 1015,4 - 0 0,0
12.07.2019 02:00:00 16,1 13,4 13,5 3 2 5 3 W 1015,6 - 0 0,0
12.07.2019 01:00:00 17,4 13,9 15,0 3 2 6 3 WNW 1015,6 - 0 0,0
12.07.2019 00:00:00 18,6 14,0 15,8 0 0 6 4 NW 1015,5 - 0 0,0
11.07.2019 23:00:00 19,9 13,4 17,8 3 2 6 3 NNW 1015,3 50 0 0,0
11.07.2019 22:00:00 20,4 12,8 18,6 1 0 5 3 N 1015,1 - 0 0,0
11.07.2019 21:00:00 21,2 12,6 19,8 3 2 10 5 N 1014,7 - 0 0,0
11.07.2019 20:00:00 21,7 12,0 21,1 6 3 13 7 NNO 1014,7 50 0 0,0
11.07.2019 19:00:00 22,1 12,2 22,6 9 5 15 8 NNO 1014,2 - 0 0,0
11.07.2019 18:00:00 22,5 12,8 23,0 9 5 14 8 NO 1013,6 - 0 0,0
11.07.2019 17:00:00 22,9 12,2 24,0 8 4 16 9 ONO 1013,4 50 0 0,0
11.07.2019 16:00:00 23,5 9,8 27,2 4 2 11 6 WZW 1013,3 - 0 0,0
11.07.2019 15:00:00 22,6 11,1 25,2 4 2 10 5 NW 1013,5 - 0 0,0
11.07.2019 14:00:00 22,5 10,6 26,4 3 2 13 7 N 1013,8 35 0 0,0
11.07.2019 13:00:00 21,4 8,9 24,7 7 4 16 8 O 1014,4 - 5 0,0
11.07.2019 12:00:00 20,7 10,5 24,1 2 1 10 5 WNW 1015,0 - 0 0,0
11.07.2019 11:00:00 20,0 11,5 22,5 3 2 9 5 ZZO 1015,1 40 0 0,0
11.07.2019 10:00:00 19,4 11,7 21,5 3 2 6 3 N 1015,0 - 0 0,0
11.07.2019 09:00:00 18,0 10,8 19,0 1 0 5 3 WZW 1015,3 - 0 0,0
11.07.2019 08:00:00 16,5 11,3 16,3 2 1 8 4 NW 1015,5 50 0 0,0
11.07.2019 07:00:00 15,3 9,4 13,6 2 1 5 3 NW 1015,6 - 0 0,0
11.07.2019 06:00:00 13,6 9,4 11,0 1 1 5 3 NW 1015,6 - 0 0,0
11.07.2019 05:00:00 14,6 9,7 11,6 3 2 6 3 NNW 1015,4 - 0 0,0
11.07.2019 04:00:00 14,7 9,4 11,2 1 1 5 3 W 1015,6 - 0 0,0
11.07.2019 03:00:00 15,5 9,4 11,7 2 1 3 2 NW 1015,9 - 0 0,0
11.07.2019 02:00:00 16,0 8,9 12,2 3 2 5 3 WNW 1016,4 - 0 0,0

tt = temperatuur
td = dauwpunt
tt 5cm = temperatuur 5cm
ff = windsnelheid
fx = windstoten
dd = windrichting
ppp = luchtdruk
vv = zicht
sd = Zonneschijnduur
rr = neerslag

Weerstations in de omgeving